Temp
82 82 79 73 64 63 58 62 68 68 69 74 77 73 68 69 68 58 72 76 77 77 77 80 81 82 82 82 82 83 83 83 83 83 83 83 83 83 83 83 83 83 83 84 83 83 83 83 83
82 82 76 69 60 54 58 68 66 70 74 76 78 75 70 66 74 69 71 77 79 78 77 79 81 82 83 83 83 83 83 83 83 83 83 83 83 83 84 83 83 83 83 84 83 83 83 83 83
84 87 69 66 61 55 57 67 69 74 78 76 73 77 73 67 73 73 77 79 79 76 77 79 82 82 83 83 83 83 83 83 83 83 83 84 84 84 84 84 83 83 83 83 83 83 83 83 83
81 76 72 63 62 67 68 71 74 73 76 78 75 68 76 80 77 77 79 79 77 77 79 82 83 83 83 83 83 83 83 83 83 83 84 84 84 84 84 84 84 83 83 83 83 83 83 83 83
77 71 63 62 64 70 73 76 76 72 74 74 75 68 70 77 79 79 78 78 76 76 79 80 83 83 83 83 83 83 84 83 83 83 84 84 84 84 84 84 84 84 83 83 83 83 83 83 83
70 69 61 58 64 71 74 77 76 75 74 72 70 69 68 78 77 78 79 77 78 77 77 80 82 83 83 84 84 83 84 83 83 83 84 84 84 83 84 84 84 84 84 84 83 83 83 83 83
70 65 60 62 65 68 72 79 72 71 72 71 76 65 69 74 78 79 78 78 78 78 77 77 79 82 83 83 84 84 84 83 83 83 83 83 83 83 83 84 84 84 84 84 84 84 83 83 83
74 68 62 62 65 65 75 75 76 75 73 81 79 65 65 74 80 79 78 76 76 76 76 76 76 77 77 79 84 84 83 83 83 83 83 83 83 84 84 82 82 84 84 84 85 83 83 83 83
83 64 61 66 67 69 78 72 79 81 76 80 81 76 77 80 80 76 74 74 74 76 75 75 75 76 76 77 80 83 83 83 83 83 83 82 76 76 78 80 82 83 83 84 85 84 84 84 83
74 64 69 76 75 73 77 76 75 75 74 74 75 79 80 80 77 73 72 70 72 73 74 75 75 75 75 80 76 76 78 77 76 76 76 75 75 74 76 79 82 83 84 84 84 84 85 83 76
73 69 77 78 78 81 77 77 79 73 69 73 71 74 78 78 75 74 74 73 73 74 75 75 75 75 75 76 75 75 74 74 74 74 74 74 74 73 74 73 74 73 78 76 78 77 76 76 75
72 79 81 79 81 77 76 78 76 75 74 80 78 78 78 76 75 75 74 74 74 74 76 75 75 75 75 74 74 74 74 74 73 73 74 72 72 72 72 72 73 73 74 75 75 74 75 75 75
75 78 82 82 78 78 78 75 75 76 81 82 80 79 77 76 76 77 78 77 76 74 76 76 76 75 75 74 74 73 74 74 74 74 74 74 73 74 72 73 72 73 73 73 73 72 72 74 75
80 78 80 78 76 76 74 75 76 78 80 78 78 76 77 77 77 77 77 76 76 77 77 78 77 76 74 74 74 74 74 75 76 74 77 75 75 75 73 72 73 72 72 72 72 72 72 72 73
83 73 77 76 73 74 78 70 70 79 79 76 76 76 77 78 79 77 78 77 78 78 80 79 78 76 74 74 75 74 74 74 73 73 76 76 77 74 73 73 71 72 72 73 72 72 72 71 72
74 70 64 71 75 77 73 61 73 79 78 74 76 77 77 77 78 79 80 79 79 79 78 81 83 78 74 73 74 74 74 74 74 73 74 75 76 73 72 70 70 72 70 71 70 70 70 70 69
68 63 62 68 77 75 69 63 74 79 78 76 77 77 78 77 78 80 81 79 79 79 78 78 80 77 75 74 74 74 74 74 74 73 74 75 76 75 74 71 71 72 70 70 70 70 69 68 68
64 61 65 66 75 74 68 66 74 77 76 75 76 78 78 77 77 80 81 81 79 79 78 78 78 75 74 73 73 73 73 73 73 72 73 74 74 74 72 72 73 71 70 69 68 68 68 67 67
70 67 67 72 76 70 68 66 71 75 75 74 75 76 77 78 80 81 81 81 79 78 76 76 74 73 73 72 71 71 71 72 72 72 74 74 74 74 73 71 71 70 68 67 68 67 67 66 66
71 67 67 72 75 70 66 66 73 74 74 76 75 76 77 77 76 78 79 79 78 76 76 74 75 73 74 72 71 71 70 70 72 72 73 74 74 74 73 71 69 69 67 66 66 66 64 64 65
66 65 67 68 73 71 68 62 67 73 76 78 79 79 79 77 76 77 78 78 79 76 74 74 75 74 73 73 71 71 71 70 69 69 70 72 76 76 74 70 68 67 65 65 65 65 64 62 63
58 74 75 72 69 58 69 51 61 68 71 74 77 78 79 79 79 78 78 77 77 77 77 75 74 73 73 73 72 71 69 67 66 67 68 70 72 71 71 70 68 67 65 65 65 66 64 63 61
70 76 74 71 68 59 60 55 59 67 64 71 75 78 79 80 79 78 79 79 79 80 77 75 73 72 73 72 72 70 67 66 65 65 66 65 66 69 70 69 67 66 65 65 65 65 64 63 62
77 72 65 59 58 51 60 60 55 60 69 73 77 78 80 80 80 80 81 81 79 80 78 76 73 73 72 72 71 70 68 65 64 63 64 63 63 65 68 69 67 66 65 65 65 65 64 63 62
70 61 50 48 48 48 58 58 63 69 76 78 76 76 79 80 80 79 79 78 78 77 78 77 74 72 72 72 69 68 67 65 65 64 63 63 63 63 65 66 65 65 65 65 64 64 63 63 62
64 62 50 45 44 52 56 53 66 77 79 82 82 80 80 79 80 79 79 79 79 79 78 78 75 74 72 70 68 66 65 65 64 63 63 63 63 64 65 65 66 66 67 66 65 63 63 63 62
63 58 65 53 45 49 52 60 71 72 74 79 80 78 78 79 79 79 80 79 80 79 78 78 76 75 71 72 68 66 65 66 64 64 64 64 63 66 66 66 66 66 66 66 65 63 63 63 62
73 69 56 51 46 43 51 54 58 67 67 72 75 76 78 80 79 80 80 79 80 81 80 79 78 75 71 68 69 69 66 68 67 65 65 65 65 66 65 65 66 66 66 65 64 63 63 62 62
63 59 55 56 50 48 47 53 64 70 68 69 74 79 80 80 79 80 80 81 80 81 80 78 77 74 69 69 66 65 65 66 65 65 65 65 64 65 65 65 65 65 65 65 63 63 63 62 61
67 65 62 59 50 47 50 54 69 70 70 75 75 78 79 81 80 81 81 81 80 79 80 78 77 74 71 71 67 65 65 65 66 65 66 65 65 64 65 65 65 65 65 64 63 63 63 63 62
MSLP
1007.50 1008.33 1008.84 1009.50 1010.05 1009.41 1009.40 1009.16 1008.81 1009.12 1009.42 1009.70 1009.68 1010.02 1011.05 1011.62 1011.95 1013.78 1013.86 1013.93 1014.11 1014.30 1014.19 1014.28 1014.49 1014.73 1014.95 1015.17 1015.34 1015.52 1015.70 1015.79 1016.08 1016.27 1016.63 1016.65 1016.71 1016.77 1016.92 1017.05 1017.11 1017.31 1017.19 1017.08 1017.26 1017.34 1017.30 1017.18 1017.16
1007.09 1007.94 1008.70 1008.86 1009.28 1009.80 1009.19 1008.65 1008.58 1008.93 1009.29 1009.57 1009.75 1010.44 1010.98 1012.08 1012.39 1013.39 1014.04 1014.13 1014.10 1014.32 1014.42 1014.50 1014.71 1014.76 1015.18 1015.46 1015.60 1015.71 1015.89 1016.21 1016.33 1016.45 1016.74 1016.93 1016.84 1017.09 1017.14 1017.32 1017.27 1017.44 1017.36 1017.40 1017.41 1017.45 1017.40 1017.27 1017.29
1007.41 1007.26 1008.32 1008.48 1008.89 1009.09 1008.92 1008.55 1008.51 1008.92 1009.27 1009.51 1010.26 1010.59 1011.52 1012.72 1013.06 1013.47 1013.65 1014.13 1014.31 1014.65 1014.73 1014.77 1014.92 1015.19 1015.46 1015.56 1015.67 1015.89 1016.12 1016.38 1016.50 1016.70 1016.88 1017.06 1017.09 1017.31 1017.52 1017.42 1017.44 1017.66 1017.67 1017.59 1017.63 1017.52 1017.43 1017.38 1017.36
1006.86 1007.65 1007.91 1007.94 1008.44 1008.31 1007.96 1008.16 1008.50 1008.94 1009.41 1009.78 1010.49 1011.32 1011.98 1012.36 1013.03 1013.38 1013.98 1014.23 1014.75 1014.87 1014.96 1014.98 1015.18 1015.35 1015.54 1015.58 1015.90 1016.11 1016.34 1016.53 1016.77 1016.99 1017.14 1017.36 1017.33 1017.56 1017.67 1017.56 1017.70 1017.90 1017.85 1017.79 1017.75 1017.76 1017.61 1017.53 1017.53
1007.16 1007.17 1007.78 1008.39 1008.42 1008.17 1008.04 1008.09 1008.46 1009.10 1009.54 1010.14 1010.57 1011.96 1012.40 1013.05 1013.12 1013.81 1014.30 1014.58 1014.84 1015.13 1015.09 1015.29 1015.31 1015.55 1015.63 1015.87 1016.23 1016.50 1016.66 1016.87 1017.09 1017.25 1017.46 1017.50 1017.63 1017.75 1017.72 1017.77 1017.91 1018.01 1017.89 1017.83 1017.90 1017.87 1017.78 1017.74 1017.72
1007.23 1007.19 1008.53 1009.02 1008.70 1008.55 1008.58 1008.42 1008.65 1009.21 1009.90 1010.70 1011.29 1011.96 1013.18 1013.46 1013.65 1014.19 1014.51 1014.72 1014.85 1015.28 1015.39 1015.51 1015.65 1015.78 1015.87 1016.24 1016.54 1016.73 1016.93 1017.14 1017.25 1017.45 1017.65 1017.75 1017.86 1017.90 1017.91 1017.97 1017.99 1018.02 1018.00 1017.93 1017.98 1017.84 1017.76 1017.74 1017.71
1006.81 1007.09 1008.63 1008.86 1009.02 1009.04 1008.85 1008.89 1009.03 1009.07 1009.90 1010.53 1010.90 1012.01 1013.42 1013.81 1013.99 1014.35 1014.72 1015.01 1015.17 1015.46 1015.62 1015.79 1015.86 1015.95 1016.19 1016.49 1016.71 1016.85 1017.08 1017.21 1017.39 1017.57 1017.67 1017.79 1017.88 1017.95 1018.07 1018.01 1018.06 1017.99 1018.06 1018.01 1017.90 1017.77 1017.58 1017.64 1017.53
1005.65 1006.65 1008.34 1008.66 1008.76 1008.66 1008.73 1008.85 1009.18 1009.32 1009.62 1010.08 1010.85 1011.96 1012.90 1013.35 1013.88 1014.51 1015.03 1015.46 1015.68 1015.78 1015.85 1016.05 1016.11 1016.16 1016.41 1016.66 1016.78 1016.93 1017.09 1017.29 1017.43 1017.58 1017.71 1017.83 1017.96 1018.02 1018.08 1018.12 1018.12 1018.01 1018.02 1017.93 1017.70 1017.70 1017.51 1017.47 1017.39
1004.54 1006.77 1008.10 1008.10 1008.14 1008.09 1008.20 1008.74 1009.14 1009.07 1009.64 1009.95 1010.38 1011.20 1012.09 1013.05 1013.85 1014.67 1015.32 1015.78 1015.96 1016.13 1016.16 1016.13 1016.21 1016.38 1016.64 1016.89 1016.95 1017.04 1017.21 1017.39 1017.51 1017.70 1017.79 1017.92 1018.12 1018.07 1018.10 1018.05 1018.13 1018.10 1017.92 1017.76 1017.70 1017.59 1017.39 1017.37 1017.34
1005.02 1006.23 1006.67 1006.74 1006.99 1007.42 1007.61 1008.35 1008.47 1009.20 1009.92 1010.38 1010.63 1011.57 1012.39 1013.06 1013.75 1014.47 1015.13 1015.55 1015.90 1016.09 1016.21 1016.22 1016.31 1016.49 1016.72 1016.88 1017.13 1017.31 1017.40 1017.54 1017.68 1017.87 1017.98 1018.04 1018.05 1018.06 1018.07 1018.04 1018.03 1017.89 1017.81 1017.63 1017.57 1017.51 1017.33 1017.24 1017.39
1005.05 1005.52 1005.76 1005.85 1005.96 1006.51 1007.24 1008.35 1008.29 1009.23 1009.96 1009.74 1010.32 1011.28 1012.24 1012.98 1013.70 1014.16 1014.61 1014.73 1015.00 1015.56 1016.04 1016.21 1016.27 1016.51 1016.75 1016.84 1017.05 1017.17 1017.40 1017.60 1017.79 1017.89 1018.01 1018.03 1018.03 1017.98 1017.92 1018.00 1017.96 1018.01 1017.87 1017.79 1017.69 1017.56 1017.48 1017.47 1017.38
1004.75 1004.74 1005.01 1005.45 1005.96 1006.66 1007.38 1007.91 1008.37 1008.87 1008.99 1009.70 1010.09 1011.12 1012.04 1012.83 1013.40 1013.87 1014.26 1014.81 1015.21 1015.53 1015.70 1016.01 1016.14 1016.39 1016.51 1016.73 1016.88 1017.06 1017.34 1017.54 1017.69 1017.77 1017.81 1017.94 1018.01 1018.00 1017.83 1017.82 1017.87 1017.89 1017.80 1017.71 1017.63 1017.72 1017.69 1017.51 1017.40
1004.16 1004.26 1004.81 1005.26 1006.35 1007.07 1007.61 1007.92 1008.37 1008.98 1009.11 1010.07 1010.80 1011.45 1012.08 1012.62 1013.03 1013.42 1013.59 1014.17 1014.80 1015.28 1015.44 1015.75 1016.05 1016.23 1016.37 1016.66 1016.76 1016.93 1017.09 1017.18 1017.31 1017.47 1017.51 1017.63 1017.71 1017.61 1017.69 1017.71 1017.83 1017.88 1017.76 1017.68 1017.67 1017.87 1017.77 1017.65 1017.45
1003.58 1004.22 1004.89 1005.76 1006.86 1007.26 1007.53 1008.25 1008.53 1009.35 1009.54 1010.27 1010.92 1011.49 1011.99 1012.51 1012.87 1013.37 1013.85 1014.18 1014.48 1014.84 1015.07 1015.41 1015.71 1015.78 1016.23 1016.46 1016.52 1016.64 1016.83 1016.86 1016.88 1017.09 1017.02 1017.13 1017.16 1017.28 1017.51 1017.69 1017.71 1017.77 1017.84 1017.80 1017.54 1017.67 1017.64 1017.58 1017.56
1003.56 1004.97 1005.51 1006.47 1007.13 1007.70 1007.66 1008.76 1008.79 1008.87 1009.51 1010.31 1010.87 1011.30 1011.69 1012.04 1012.51 1012.81 1013.07 1013.65 1013.87 1014.25 1014.57 1014.99 1015.34 1015.46 1016.00 1016.20 1016.12 1016.30 1016.45 1016.62 1016.67 1016.71 1016.60 1016.67 1016.83 1017.14 1017.18 1017.34 1017.62 1017.57 1017.62 1017.63 1017.55 1017.53 1017.53 1017.57 1017.42
1004.37 1006.06 1006.46 1006.81 1007.08 1007.28 1007.33 1008.67 1008.87 1009.04 1009.41 1010.10 1010.60 1011.12 1011.33 1011.62 1011.86 1012.01 1012.48 1012.91 1013.33 1013.83 1014.20 1014.47 1014.98 1015.40 1015.63 1015.84 1015.90 1016.01 1016.13 1016.22 1016.26 1016.38 1016.29 1016.23 1016.44 1016.75 1016.97 1017.24 1017.31 1017.24 1017.51 1017.54 1017.65 1017.66 1017.70 1017.77 1017.72
1005.42 1006.41 1006.78 1006.95 1006.54 1007.01 1007.63 1008.66 1008.73 1008.91 1009.32 1009.82 1010.15 1010.50 1010.69 1011.12 1011.56 1011.63 1011.78 1012.27 1012.74 1013.15 1013.64 1014.14 1014.52 1015.01 1015.28 1015.49 1015.69 1015.79 1015.94 1016.11 1016.12 1016.12 1016.10 1016.07 1016.20 1016.33 1016.69 1017.11 1017.18 1017.17 1017.38 1017.54 1017.76 1017.80 1017.86 1017.87 1017.79
1005.77 1006.67 1006.53 1005.63 1006.18 1006.91 1007.74 1007.74 1008.16 1008.75 1009.15 1009.38 1009.71 1009.90 1010.18 1010.55 1010.66 1010.92 1011.42 1011.96 1012.35 1012.82 1013.27 1013.70 1014.23 1014.61 1015.07 1015.51 1015.71 1015.77 1015.81 1015.78 1015.93 1016.07 1016.10 1016.12 1016.14 1016.22 1016.63 1016.92 1016.91 1017.21 1017.62 1017.83 1017.85 1017.98 1017.96 1017.97 1017.96
1005.27 1005.94 1005.90 1005.40 1005.71 1006.67 1007.33 1007.61 1007.65 1008.30 1008.91 1009.18 1009.40 1009.70 1009.89 1009.95 1010.02 1010.57 1010.97 1011.60 1012.31 1012.70 1013.17 1013.64 1014.24 1014.56 1014.99 1015.57 1015.74 1015.96 1015.95 1015.82 1015.86 1015.83 1015.89 1015.99 1016.07 1016.09 1016.40 1016.71 1017.03 1017.28 1017.63 1017.80 1017.91 1017.95 1018.00 1018.07 1018.03
1004.58 1005.09 1005.82 1005.76 1005.74 1006.53 1007.41 1007.63 1007.84 1007.93 1007.87 1007.93 1008.33 1008.78 1009.04 1009.41 1009.89 1010.37 1010.87 1011.43 1011.99 1012.28 1012.89 1013.47 1013.83 1014.28 1014.57 1014.67 1015.07 1015.40 1015.62 1015.66 1015.59 1015.61 1015.69 1015.70 1015.79 1015.99 1016.37 1016.71 1017.25 1017.44 1017.70 1017.94 1017.95 1017.99 1018.23 1018.24 1018.18
1004.13 1004.35 1004.64 1005.03 1005.97 1006.64 1007.64 1008.61 1008.52 1008.14 1007.83 1007.76 1007.80 1007.87 1008.40 1008.64 1009.06 1009.76 1010.40 1010.88 1011.48 1012.13 1012.57 1012.97 1013.42 1013.64 1013.98 1014.44 1014.89 1015.34 1015.60 1015.76 1015.81 1015.78 1015.80 1015.71 1015.67 1015.78 1016.10 1016.75 1017.14 1017.54 1017.85 1018.04 1018.14 1018.18 1018.30 1018.53 1018.45
1003.20 1003.12 1003.58 1004.97 1006.13 1006.68 1007.08 1008.37 1007.93 1007.70 1007.56 1007.34 1007.13 1007.29 1007.60 1008.12 1008.68 1009.17 1009.68 1010.36 1010.83 1011.34 1011.87 1012.30 1012.87 1013.14 1013.60 1014.06 1014.51 1015.01 1015.47 1016.04 1015.95 1015.91 1015.88 1015.83 1015.89 1016.07 1016.25 1016.60 1017.00 1017.34 1017.56 1017.85 1018.03 1018.09 1018.10 1018.36 1018.72
1002.18 1002.60 1003.45 1004.62 1005.97 1006.81 1007.54 1007.80 1006.85 1007.04 1007.17 1006.21 1005.80 1006.15 1006.64 1007.16 1007.80 1008.42 1008.83 1009.31 1009.74 1010.58 1011.31 1011.84 1012.39 1012.91 1013.26 1013.71 1014.05 1014.63 1015.30 1015.74 1015.84 1015.93 1016.16 1016.25 1016.24 1016.24 1016.35 1016.65 1017.00 1017.34 1017.54 1017.68 1017.79 1017.91 1017.94 1017.95 1018.16
1001.32 1002.63 1003.89 1005.36 1006.46 1007.25 1006.61 1006.87 1006.59 1006.06 1004.67 1004.09 1004.94 1005.03 1005.40 1006.17 1006.88 1007.59 1008.10 1009.08 1009.58 1010.18 1010.74 1011.25 1011.82 1012.23 1012.67 1013.27 1013.77 1014.10 1014.77 1015.44 1015.84 1016.15 1016.25 1016.44 1016.33 1016.39 1016.42 1016.57 1016.83 1017.07 1017.41 1017.54 1017.48 1017.66 1017.83 1017.85 1017.89
1001.86 1003.72 1005.44 1006.75 1007.27 1007.10 1005.92 1006.56 1004.48 1003.37 1002.62 1002.17 1002.65 1003.40 1004.05 1004.98 1005.91 1006.67 1007.66 1008.33 1008.90 1009.24 1009.64 1010.30 1011.02 1011.70 1012.16 1012.61 1013.20 1013.77 1014.08 1014.75 1015.42 1015.92 1016.10 1016.39 1016.38 1016.38 1016.44 1016.66 1016.88 1017.16 1017.14 1017.10 1017.11 1017.35 1017.58 1017.73 1017.81
1001.93 1003.18 1005.09 1006.25 1007.33 1006.73 1006.04 1005.28 1002.42 1001.44 1001.32 1001.35 1001.87 1002.43 1003.48 1004.23 1004.91 1005.73 1006.40 1006.99 1007.64 1008.43 1009.11 1009.73 1010.33 1011.05 1011.72 1012.27 1012.83 1013.35 1013.81 1014.29 1014.85 1015.32 1015.64 1015.90 1016.03 1015.90 1016.07 1016.35 1016.58 1016.73 1016.71 1016.72 1016.78 1017.13 1017.35 1017.47 1017.57
1001.45 1002.60 1003.31 1005.12 1006.53 1006.38 1005.31 1003.89 1001.89 1001.05 1000.63 1000.75 1001.10 1002.01 1002.78 1003.18 1003.98 1004.65 1005.54 1006.11 1007.00 1007.68 1008.16 1008.63 1009.66 1010.55 1011.30 1011.82 1012.58 1013.20 1013.56 1014.23 1014.66 1014.98 1015.29 1015.44 1015.65 1015.67 1015.82 1015.96 1016.31 1016.39 1016.35 1016.37 1016.80 1017.08 1017.25 1017.34 1017.29
999.94 1001.36 1003.31 1004.74 1005.75 1005.91 1004.84 1003.33 1001.95 1000.65 1000.16 1000.20 1001.09 1001.46 1001.68 1002.25 1003.17 1003.92 1004.63 1005.41 1006.04 1006.46 1007.21 1008.04 1008.89 1009.93 1010.60 1011.31 1011.95 1012.69 1013.03 1013.51 1014.09 1014.48 1014.74 1014.91 1015.15 1015.54 1015.69 1015.89 1016.17 1016.20 1016.27 1016.40 1016.64 1016.88 1016.98 1017.20 1017.27
1000.21 1000.96 1002.50 1003.54 1004.37 1004.98 1004.56 1002.80 1000.65 999.87 999.73 999.98 1000.11 1000.18 1000.56 1001.43 1002.18 1002.94 1003.65 1004.27 1004.83 1005.62 1006.55 1007.35 1008.34 1009.14 1009.87 1010.65 1011.18 1012.13 1012.91 1013.23 1013.89 1013.94 1014.29 1014.57 1014.75 1014.98 1015.37 1015.58 1015.93 1016.10 1016.23 1016.30 1016.50 1016.62 1016.75 1016.81 1016.69
998.71 999.61 1000.82 1002.60 1004.09 1004.13 1003.39 1001.38 999.73 999.26 999.25 999.39 999.82 1000.08 1000.24 1000.78 1001.50 1002.22 1002.68 1003.34 1004.32 1004.98 1005.81 1006.58 1007.57 1008.16 1008.84 1009.75 1010.73 1011.35 1011.93 1012.73 1013.44 1013.55 1013.71 1014.05 1014.24 1014.38 1014.72 1015.07 1015.49 1015.82 1015.92 1015.99 1016.07 1016.16 1016.25 1016.44 1016.62
Wind_Speed
11 10 4 2 1 5 0 2 2 3 4 0 5 7 9 10 3 4 2 7 8 7 8 13 18 18 18 16 16 17 17 16 16 16 15 15 15 14 13 11 11 10 9 9 8 6 5 7 6
12 12 2 2 5 4 4 2 4 3 7 10 10 7 11 6 6 10 7 9 9 8 6 10 16 18 17 16 16 15 16 15 15 15 14 14 14 13 12 11 10 9 8 7 6 5 4 4 4
12 4 3 3 3 5 4 2 5 9 10 4 6 9 5 4 9 10 10 12 9 6 5 10 16 16 17 16 15 14 14 15 14 14 13 13 13 12 10 9 9 8 6 5 4 3 2 1 2
5 1 2 4 4 3 6 7 6 8 3 9 14 10 5 8 8 7 14 12 10 7 7 12 16 17 16 16 15 14 14 13 13 12 13 12 11 10 9 8 7 6 5 3 3 1 1 1 0
1 2 5 5 2 3 5 11 11 7 4 12 6 7 6 3 14 15 12 11 10 6 8 9 14 15 15 15 14 13 13 13 13 12 12 11 10 9 8 7 6 5 4 2 1 2 2 3 2
2 3 7 3 3 4 6 8 12 8 10 11 12 8 4 12 15 12 11 11 9 8 6 7 13 14 14 15 13 12 12 12 12 11 10 10 9 8 8 7 5 4 2 2 3 4 4 5 5
4 6 4 5 6 7 8 9 7 14 11 9 10 6 7 11 12 11 10 10 8 7 6 5 6 11 15 14 14 13 12 12 11 10 10 10 9 8 6 6 4 4 4 5 6 7 7 7 7
5 6 4 2 9 5 9 5 7 10 6 14 11 6 11 11 15 11 10 9 7 6 5 5 5 5 6 7 15 14 12 12 11 11 10 9 8 7 6 4 4 5 7 7 7 8 8 7 8
3 6 3 6 7 6 10 6 7 7 12 5 5 8 14 18 16 13 10 7 7 6 6 5 5 5 5 5 7 12 13 12 11 10 10 7 3 4 5 5 6 7 9 7 5 6 7 8 8
6 3 7 8 6 13 10 15 11 8 12 8 15 14 17 19 16 15 12 11 9 10 7 6 5 5 5 6 4 4 4 3 4 4 4 3 4 4 4 6 8 8 9 11 8 6 7 7 3
4 6 6 7 7 16 16 12 4 17 7 19 22 21 21 17 16 15 14 16 17 13 9 9 8 6 6 5 4 3 3 2 3 5 5 4 3 3 3 2 2 2 5 3 4 3 2 3 3
4 5 7 7 8 8 15 9 7 10 6 16 22 22 20 18 16 15 14 12 11 11 11 9 8 8 9 4 4 4 3 3 3 4 6 4 3 4 4 3 3 3 1 1 2 1 2 3 5
8 6 7 8 11 9 7 4 6 6 14 16 19 20 21 18 17 15 15 13 11 11 11 11 10 9 7 6 4 4 4 4 4 4 5 4 4 5 3 3 2 2 1 1 1 0 2 2 3
7 3 8 7 8 4 11 8 8 9 17 19 20 20 18 17 16 11 10 11 13 12 11 12 12 10 6 6 6 5 4 5 5 4 5 7 5 4 4 4 3 2 2 2 2 2 1 2 3
12 6 7 4 3 6 13 4 8 17 20 20 20 17 18 17 15 16 14 13 14 12 12 13 12 8 8 8 7 5 6 5 4 5 6 6 6 4 4 3 2 3 2 2 1 2 2 2 2
10 5 7 3 6 8 7 5 12 16 21 20 18 17 16 16 18 16 16 14 13 11 12 13 11 10 9 7 5 4 4 4 4 4 4 6 6 5 3 3 3 3 1 1 1 1 2 2 2
5 13 5 6 8 4 3 5 15 16 17 17 16 19 16 15 15 14 15 15 14 14 13 12 12 11 11 6 5 5 6 4 3 3 3 4 5 5 5 4 2 0 1 1 0 1 0 2 2
12 8 8 11 16 6 6 6 18 18 17 17 15 13 13 14 17 16 15 13 12 13 12 13 11 8 7 4 3 2 2 2 2 3 3 2 1 3 4 3 2 3 3 1 1 1 1 1 1
10 8 17 10 8 5 9 8 20 20 16 16 15 14 14 14 13 13 14 13 11 10 10 10 8 7 6 4 3 1 3 2 2 3 4 5 4 4 4 3 3 3 3 2 2 1 2 2 2
8 9 13 2 9 6 6 8 18 20 22 20 20 17 18 14 10 12 12 11 12 13 11 9 11 9 8 3 3 3 2 2 2 1 2 4 5 5 5 5 3 4 4 3 1 1 1 0 2
5 8 10 9 10 5 9 5 12 13 10 15 16 17 15 17 17 15 15 14 12 11 11 11 12 11 7 7 3 2 2 2 2 1 1 3 5 5 6 5 5 4 3 3 2 1 2 1 1
4 9 8 10 17 9 8 6 9 13 15 14 16 17 17 16 16 15 16 15 14 13 11 11 10 8 7 8 6 5 4 4 3 2 2 3 3 5 6 6 6 5 3 4 2 2 1 2 1
10 9 9 9 14 6 5 4 7 13 11 22 20 19 19 18 19 18 19 19 18 14 12 10 9 8 8 9 8 6 4 3 2 2 3 2 0 2 5 6 6 4 3 3 4 2 2 2 3
2 4 8 7 6 5 13 9 6 11 28 26 17 18 21 20 20 19 19 15 14 12 12 11 12 11 10 10 8 9 9 7 5 3 4 2 0 0 4 5 5 4 4 4 3 2 2 3 3
6 8 3 4 3 7 9 7 12 19 24 28 26 21 21 21 20 20 19 17 15 17 17 15 15 14 12 12 9 9 9 9 8 6 5 5 3 2 5 4 4 3 4 4 3 3 2 3 2
8 12 9 8 5 7 7 8 14 18 20 24 19 20 16 19 19 21 22 20 20 18 16 16 16 15 12 11 10 8 8 6 5 6 4 4 4 5 5 5 5 5 5 3 3 2 3 3 4
4 5 10 6 2 4 6 7 9 7 11 19 23 15 18 19 21 23 21 20 19 19 19 19 17 15 12 12 9 8 8 7 7 7 5 5 5 4 6 6 6 5 4 4 3 2 3 3 3
13 8 2 2 6 5 4 3 7 6 6 12 15 17 20 20 19 19 19 19 18 20 19 17 16 16 13 11 11 9 9 8 7 6 7 7 6 5 6 6 6 6 5 4 3 3 4 4 4
3 4 3 5 5 8 4 8 10 8 8 15 19 22 21 19 19 18 18 19 20 18 17 17 16 16 14 14 12 10 6 7 7 7 7 7 6 7 7 7 6 6 5 5 4 5 5 6 6
7 10 10 8 7 1 5 9 3 9 9 14 16 16 14 16 17 19 19 20 17 18 17 17 15 17 16 15 13 11 9 8 9 8 8 7 8 7 8 7 6 6 6 5 6 6 5 6 6
Wind_Direction
145 139 121 65 68 74 329 203 183 110 96 131 77 96 93 30 65 150 95 133 133 134 140 139 145 143 138 128 126 128 128 124 118 117 119 117 117 113 115 118 113 108 105 105 109 110 95 82 86
157 147 111 263 82 84 288 135 167 119 92 120 93 76 51 70 56 113 109 154 138 136 134 139 141 136 135 132 126 126 126 125 122 122 124 124 124 125 125 128 118 118 117 118 119 118 99 92 86
160 165 119 143 112 162 177 235 123 104 132 103 105 74 72 69 108 136 133 141 130 113 113 139 134 132 137 133 127 128 134 138 130 131 130 134 129 126 129 124 120 117 122 125 128 117 97 75 81
157 159 263 90 161 345 149 170 135 114 140 86 109 74 81 125 144 132 139 137 126 123 132 136 140 140 141 137 138 139 142 137 134 136 137 136 128 130 132 124 123 131 134 134 112 83 72 306 353
318 96 55 60 14 51 103 142 138 131 112 101 97 107 81 51 109 129 137 134 131 132 136 144 145 149 144 145 145 145 140 136 138 138 141 136 134 138 139 139 147 153 152 157 177 275 307 307 310
18 107 63 90 80 83 105 139 143 115 106 114 103 102 78 127 129 141 139 137 138 134 128 146 148 152 150 156 153 151 149 145 143 146 143 138 147 152 152 159 173 181 192 229 262 274 275 279 276
172 80 144 92 134 143 157 149 151 136 133 121 139 98 121 141 147 143 139 132 135 138 135 135 147 156 163 165 167 164 161 153 159 154 154 160 165 169 176 191 203 222 240 261 274 278 281 271 271
150 92 82 65 149 160 148 130 151 131 100 119 145 153 159 159 149 134 134 132 136 139 144 148 159 158 159 169 174 177 173 171 174 170 173 179 184 193 208 220 258 249 254 262 274 282 289 295 283
92 78 103 179 161 162 171 138 174 92 133 146 195 132 147 147 135 129 129 137 144 156 165 162 166 164 163 170 186 182 181 182 188 186 187 192 193 234 240 246 252 275 281 308 300 300 298 297 315
76 51 179 179 171 167 167 165 148 134 158 113 111 118 143 147 146 147 156 162 168 171 180 176 169 169 166 180 201 176 197 190 197 196 213 198 216 235 242 274 279 276 280 282 295 291 290 307 325
181 184 162 183 166 162 150 161 102 147 169 157 149 151 156 161 161 162 170 176 178 176 177 183 179 178 178 194 186 186 198 200 209 215 212 224 229 245 246 255 270 266 280 284 307 285 290 314 324
135 254 165 145 143 128 159 140 130 170 184 160 149 156 161 165 171 175 175 173 174 178 185 181 184 184 195 186 186 190 194 201 216 214 217 207 223 244 236 218 230 242 247 0 332 10 329 331 328
176 197 159 135 113 128 114 129 139 185 135 146 152 157 170 175 179 186 181 177 170 178 188 183 183 193 195 189 186 193 208 212 218 221 224 206 219 228 233 254 218 230 252 228 141 177 261 268 304
164 174 107 111 117 132 120 124 116 151 135 148 160 169 175 179 186 179 182 180 181 181 189 181 191 195 174 190 191 202 203 225 215 219 229 221 219 212 199 217 219 215 211 239 238 211 293 332 325
117 86 66 92 181 126 121 64 162 154 148 157 171 177 181 188 185 189 186 187 183 188 185 185 194 185 182 202 204 199 212 222 226 230 237 227 221 229 219 211 198 237 250 297 302 348 349 339 322
97 39 127 218 189 182 88 197 165 166 157 167 176 184 190 196 189 194 185 189 191 182 180 185 187 192 192 196 199 196 193 203 213 231 229 228 227 213 193 205 218 216 277 60 320 339 333 315 318
64 176 198 177 214 147 128 142 179 175 174 178 177 185 192 195 199 197 191 185 189 185 177 180 183 189 194 192 205 203 201 203 212 233 234 225 231 214 164 210 229 155 37 11 196 329 224 315 330
177 166 213 165 197 175 217 174 166 177 177 187 194 194 196 183 198 192 188 182 180 188 180 180 185 185 174 176 203 218 232 247 210 207 233 207 156 155 155 180 197 125 95 62 32 280 253 250 306
141 180 199 209 187 136 199 160 174 181 187 191 195 201 205 207 195 187 189 177 175 181 172 180 167 184 159 181 166 195 224 224 229 217 225 199 199 183 157 131 139 116 111 93 53 87 55 42 5
156 168 202 303 156 101 182 196 186 185 196 193 194 198 205 206 183 181 187 184 174 180 187 177 191 185 191 171 162 159 170 214 227 153 229 204 181 160 152 153 140 138 108 88 87 86 98 346 7
167 172 188 184 161 49 115 348 208 219 215 212 206 208 206 200 188 185 181 183 187 182 184 182 191 185 187 180 124 87 62 50 7 356 219 202 179 159 143 139 142 130 129 152 166 171 161 139 308
193 206 209 152 160 189 167 218 225 211 222 221 214 211 207 202 199 188 183 185 187 195 187 182 188 183 190 175 164 159 172 185 221 190 180 142 157 133 140 147 149 157 159 146 160 162 160 124 143
227 154 197 174 183 111 211 100 256 165 227 229 215 210 205 198 194 194 190 190 190 186 184 182 179 182 181 181 177 167 166 178 174 127 141 135 2 174 161 154 151 150 154 163 164 177 178 179 161
191 104 42 40 128 203 199 178 240 183 212 225 216 214 203 197 199 196 197 190 189 184 181 181 183 193 183 181 183 176 172 168 152 169 168 188 206 207 168 152 159 161 176 178 190 185 193 197 192
98 81 330 345 356 214 195 193 232 207 216 215 206 206 200 195 196 194 189 187 189 190 191 186 188 196 192 183 180 182 171 162 169 176 179 170 164 167 171 162 173 175 196 191 191 198 213 220 195
180 160 161 191 198 228 110 206 240 224 223 222 209 204 193 196 195 195 192 189 196 196 196 193 191 197 189 182 180 170 161 165 173 181 180 178 179 180 172 179 185 206 201 200 216 219 221 220 227
200 155 195 136 351 117 207 267 324 266 218 211 207 186 198 196 195 197 196 193 195 198 198 193 196 197 185 182 166 170 166 165 179 188 176 175 185 185 180 184 193 214 224 214 204 232 244 234 218
192 168 101 352 170 232 260 246 229 288 233 207 193 197 200 199 194 198 196 192 199 201 202 198 193 195 181 170 174 174 178 174 181 171 178 180 180 187 173 186 200 208 225 226 215 247 258 244 255
149 175 82 129 140 170 224 257 211 225 209 191 197 199 198 192 194 194 196 196 201 200 197 197 191 185 177 181 168 161 177 167 181 174 179 189 180 182 188 196 206 214 228 237 232 245 256 235 237
182 204 174 197 248 166 171 263 247 240 203 191 195 196 192 195 191 195 196 196 195 199 197 195 191 189 184 179 169 169 173 174 184 189 195 189 197 188 193 196 202 215 228 239 236 251 248 239 244